Torna al catalogo

STARLINK-34005

AttivoComunicazioniVLEO
NORAD 63935·PAYLOAD·🇺🇸 United States

Lanciato May 13, 2025 da Vandenberg Space Force Base

Loading…

Prossimi Passaggi (prossime 24 ore)

TLE

AggiornatoSource: CelesTrak SupGP

Epoca: Sep 14, 2026, 21:44 UTC

1 63935C 25098K   26257.90604167 -.00022789  00000+0 -79339-3 0  2575
2 63935  70.0003 155.7202 0003189 270.4527 199.5122 15.29563880    15

Traccia STARLINK-34005 in tempo reale con AllMySat

Download on the App Store